Date,TemperatureHighF,TemperatureAvgF,TemperatureLowF,DewpointHighF,DewpointAvgF,DewpointLowF,HumidityHigh,HumidityAvg,HumidityLow,PressureMaxIn,PressureMinIn,WindSpeedMaxMPH,WindSpeedAvgMPH,GustSpeedMaxMPH,PrecipitationSumIn
2013-1-1,32,27,20,28,21,13,87,78,69,30.13,29.99,3,1,6,0.00
2013-1-2,23,17,12,13,10,7,85,75,63,30.26,30.10,4,0,5,0.00
2013-1-3,30,19,6,22,13,1,86,76,57,30.25,30.13,5,1,9,0.00
2013-1-4,31,27,24,22,18,16,78,67,54,30.25,30.13,5,3,16,0.00
2013-1-5,35,29,23,25,21,16,78,71,60,30.37,30.12,2,1,6,0.01
2013-1-6,36,34,30,31,28,25,87,77,70,30.24,29.96,6,2,13,0.08
2013-1-7,35,31,28,26,24,22,85,76,61,30.45,30.24,3,1,8,0.01
2013-1-8,41,30,22,60,23,19,88,75,50,30.33,30.24,2,0,4,0.06
2013-1-9,46,38,29,37,30,25,87,75,60,30.48,30.17,6,1,20,0.42
2013-1-10,41,33,24,31,27,22,92,78,60,30.61,30.23,2,0,3,0.04
2013-1-11,55,47,38,51,42,26,94,82,58,30.23,29.83,4,1,9,0.56
2013-1-12,60,54,47,53,51,45,95,89,75,30.00,29.83,2,0,5,0.01
2013-1-13,64,57,38,57,52,36,95,84,75,29.99,29.70,7,2,11,0.25
2013-1-14,38,30,26,36,24,19,93,77,67,30.44,29.99,5,2,7,0.00
2013-1-15,33,28,24,22,20,19,81,72,60,30.41,30.10,3,0,5,0.00
2013-1-16,36,32,28,24,22,21,79,69,57,30.10,29.89,4,1,8,0.00
2013-1-17,36,33,27,28,24,16,77,69,59,30.24,30.00,7,2,13,0.00
2013-1-18,33,27,19,19,14,7,73,59,48,30.50,30.14,7,2,11,0.00
2013-1-19,50,43,33,28,24,19,60,48,37,30.14,29.71,6,3,11,0.00
2013-1-20,46,29,20,32,15,9,62,56,46,30.18,29.67,10,5,17,0.00
2013-1-21,22,17,8,14,8,0,82,66,52,30.17,29.97,7,2,18,0.00
2013-1-22,11,8,4,3,-2,-5,80,66,50,30.33,30.13,6,2,14,0.00
2013-1-23,16,10,4,10,2,-3,83,70,56,30.34,30.11,4,1,7,0.00
2013-1-24,21,15,10,12,6,2,86,69,44,30.60,30.10,4,1,8,0.00
2013-1-25,19,15,10,14,10,5,85,78,66,30.55,30.07,2,0,6,0.00
2013-1-26,27,22,18,20,16,12,88,76,63,30.47,30.10,5,1,9,0.00
2013-1-27,32,23,9,22,14,6,87,71,55,30.56,30.26,3,1,8,0.00
2013-1-28,47,40,29,46,38,22,95,92,73,30.28,29.95,3,1,11,0.61
2013-1-29,60,53,46,55,50,45,96,91,74,30.02,29.62,4,1,7,0.09
2013-1-30,63,56,36,56,50,32,93,80,68,29.62,29.13,8,2,20,0.44
2013-1-31,36,25,17,32,17,7,89,70,57,29.90,29.28,9,5,18,0.02
2013-2-1,17,15,12,10,6,3,77,67,59,30.34,29.89,8,4,14,0.00
2013-2-2,24,18,12,19,12,4,87,79,65,30.33,29.99,3,1,6,0.00
2013-2-3,24,20,16,18,13,10,88,76,58,30.05,29.89,5,2,11,0.00
2013-2-4,25,21,16,20,16,10,88,80,73,30.07,29.88,3,0,7,0.00
2013-2-5,30,26,22,23,20,17,89,80,60,29.96,29.86,3,0,7,0.00
2013-2-6,31,26,19,24,16,11,88,68,43,30.34,29.95,4,1,8,0.12
2013-2-7,44,31,18,28,22,12,81,69,51,30.31,29.87,2,1,7,0.12
2013-2-8,40,32,25,36,27,20,91,82,72,30.25,29.72,8,4,14,0.27
2013-2-9,34,27,21,20,18,15,80,69,49,30.44,30.25,5,1,8,0.01
2013-2-10,48,34,20,33,20,14,85,60,32,30.34,29.81,4,1,6,0.01
2013-2-11,52,42,33,43,33,22,90,70,56,29.92,29.65,9,4,17,0.00
2013-2-12,37,32,26,25,23,21,85,68,57,30.09,29.92,5,2,11,0.00
2013-2-13,34,28,23,25,23,19,89,80,64,29.94,29.75,3,0,6,0.00
2013-2-14,38,32,23,34,28,20,90,85,68,29.90,29.81,7,2,10,0.01
2013-2-15,36,31,25,28,23,19,82,71,61,30.10,29.89,5,2,10,0.00
2013-2-16,30,25,19,20,14,6,86,66,40,30.08,29.96,3,1,6,0.00
2013-2-17,24,17,11,16,8,4,87,69,46,30.28,29.99,6,2,11,0.04
2013-2-18,46,27,6,31,15,2,85,62,43,30.29,29.74,4,1,10,0.02
2013-2-19,48,32,17,38,25,10,89,76,50,29.99,29.58,9,4,16,0.18
2013-2-20,22,19,16,14,11,6,80,69,52,30.25,29.99,7,3,13,0.00
2013-2-21,25,20,18,16,13,10,85,73,58,30.38,30.22,4,1,6,0.01
2013-2-22,38,30,19,36,25,13,92,82,71,30.31,29.94,3,1,8,0.02
2013-2-23,38,34,30,30,26,23,84,73,58,29.98,29.88,4,1,7,0.00
2013-2-24,33,30,27,24,21,18,76,70,62,30.15,29.89,5,2,10,0.00
2013-2-25,44,32,22,27,22,18,90,68,42,30.23,30.07,3,0,4,0.00
2013-2-26,38,33,27,36,28,20,93,82,64,30.09,29.51,5,2,16,1.00
2013-2-27,42,38,33,38,35,30,94,90,81,29.64,29.48,3,1,10,0.31
2013-2-28,35,33,31,31,29,26,91,86,81,29.88,29.58,5,2,13,0.03
2013-3-1,31,28,26,26,23,20,88,81,73,30.04,29.88,4,2,12,0.00
2013-3-2,28,26,24,22,20,18,85,79,69,30.01,29.98,4,2,6,0.00
2013-3-3,28,24,22,21,18,15,85,77,66,30.05,29.98,5,2,11,0.01
2013-3-4,36,26,15,22,17,12,88,72,48,30.15,30.05,4,1,6,0.03
2013-3-5,44,30,17,24,19,14,90,66,33,30.12,29.67,4,1,6,0.00
2013-3-6,45,38,31,29,27,25,85,66,50,30.17,29.70,3,1,6,0.00
2013-3-7,39,34,29,31,28,24,88,82,67,30.36,30.16,5,2,8,0.00
2013-3-8,37,30,25,28,25,22,89,79,66,30.47,30.36,3,1,7,0.00
2013-3-9,56,38,21,32,26,18,92,65,37,30.45,30.09,3,0,7,0.00
2013-3-10,69,57,45,36,32,27,59,40,26,30.09,29.84,4,1,8,0.00
2013-3-11,62,53,42,48,41,32,91,69,34,29.85,29.54,4,2,12,0.80
2013-3-12,42,37,34,36,29,25,87,75,65,29.98,29.73,4,2,11,0.01
2013-3-13,34,30,27,28,23,17,85,74,56,30.17,29.91,9,3,14,0.00
2013-3-14,40,30,22,22,19,16,76,64,42,30.24,30.13,6,2,14,0.02
2013-3-15,44,36,28,34,28,21,90,72,62,30.12,29.84,4,1,8,0.04
2013-3-16,37,33,29,35,30,24,94,90,81,30.01,29.67,3,1,6,0.10
2013-3-17,35,30,27,26,22,18,85,71,54,30.22,30.02,3,1,5,0.00
2013-3-18,45,35,27,44,31,18,95,86,69,30.18,29.60,5,2,12,0.47
2013-3-19,41,32,27,38,22,16,88,68,54,29.97,29.68,8,4,16,0.01
2013-3-20,31,27,21,20,17,12,80,66,53,29.97,29.89,6,2,14,0.00
2013-3-21,29,23,15,23,15,8,86,72,61,29.93,29.89,5,2,10,0.00
2013-3-22,36,28,24,22,20,19,85,71,54,30.02,29.92,5,2,9,0.02
2013-3-23,45,31,21,27,22,17,90,70,44,30.07,30.00,3,1,7,0.00
2013-3-24,36,30,23,23,21,19,88,70,53,30.03,29.50,4,1,8,0.00
2013-3-25,36,33,32,34,30,23,93,90,64,29.82,29.43,3,1,7,0.20
2013-3-26,42,35,31,33,30,28,93,84,62,30.09,29.82,5,2,11,0.03
2013-3-27,45,37,32,31,28,26,90,72,48,30.16,30.08,7,3,12,0.01
2013-3-28,45,39,34,30,27,25,77,63,50,30.26,30.15,5,2,12,0.00
2013-3-29,52,41,32,29,24,16,79,53,30,30.27,30.18,5,1,11,0.00
2013-3-30,59,42,25,27,23,19,87,52,26,30.25,29.97,4,1,7,0.00
2013-3-31,52,46,38,44,33,22,80,63,44,29.97,29.67,4,1,8,0.01
2013-4-1,46,38,32,39,22,9,83,54,27,30.06,29.65,7,3,13,0.00
2013-4-2,42,32,24,19,14,7,72,48,26,30.20,30.06,7,3,13,0.00
2013-4-3,38,32,24,20,14,9,65,49,32,30.44,30.20,7,2,13,0.00
2013-4-4,58,37,20,19,13,8,82,43,15,30.41,29.95,2,0,6,0.00
2013-4-5,49,40,30,31,22,13,65,50,34,30.21,29.90,5,2,8,0.00
2013-4-6,58,42,23,22,15,11,80,41,17,30.28,29.91,3,1,8,0.00
2013-4-7,75,60,46,45,34,13,67,39,20,29.98,29.76,7,3,17,0.00
2013-4-8,72,56,36,52,42,32,87,63,40,30.01,29.80,5,2,10,0.00
2013-4-9,81,66,47,55,48,41,81,56,38,30.07,29.82,5,2,12,0.00
2013-4-10,74,61,48,63,53,46,94,76,50,29.90,29.74,7,1,10,0.92
2013-4-11,52,49,45,50,47,43,95,93,88,29.87,29.55,2,0,5,0.25
2013-4-12,57,46,40,56,42,33,95,86,70,29.84,29.42,3,0,5,0.31
2013-4-13,44,40,34,36,32,27,82,73,60,30.02,29.84,7,2,10,0.00
2013-4-14,60,45,29,39,32,26,90,64,41,30.14,29.96,3,0,8,0.00
2013-4-15,71,59,44,50,44,36,77,58,41,30.02,29.92,4,1,9,0.00
2013-4-16,72,59,49,60,52,47,92,76,62,30.16,29.92,4,1,13,0.19
2013-4-17,68,56,46,53,45,38,94,69,39,30.27,30.02,2,0,5,0.00
2013-4-18,86,72,60,60,56,51,83,60,31,30.02,29.62,5,2,12,0.00
2013-4-19,72,54,40,60,43,28,90,67,48,29.84,29.33,7,3,21,0.28
2013-4-20,44,38,32,31,26,22,84,64,42,30.42,29.84,6,3,17,0.05
2013-4-21,53,40,28,28,25,20,89,59,29,30.61,30.42,3,1,6,0.00
2013-4-22,69,50,30,38,30,25,86,51,27,30.46,30.18,3,1,6,0.00
2013-4-23,74,59,43,42,34,25,64,41,25,30.19,29.84,4,1,8,0.00
2013-4-24,62,48,35,54,43,33,92,83,45,30.15,29.69,7,1,18,0.69
2013-4-25,54,41,31,41,33,29,93,76,41,30.34,30.15,6,1,8,0.04
2013-4-26,62,46,30,37,29,24,93,58,25,30.47,30.34,3,0,6,0.01
2013-4-27,75,55,34,39,32,29,89,49,20,30.38,30.07,3,1,8,0.00
2013-4-28,56,53,46,54,47,34,93,82,48,30.07,29.85,2,0,7,0.50
2013-4-29,68,60,55,57,53,51,94,80,56,29.96,29.84,3,0,5,0.17
2013-4-30,78,63,48,56,51,46,94,68,37,30.07,29.96,3,1,10,0.00
2013-5-1,83,68,53,56,51,47,85,58,33,30.22,30.07,3,1,8,0.00
2013-5-2,82,68,55,48,40,33,55,38,24,30.27,30.10,3,1,7,0.00
2013-5-3,81,67,55,44,38,32,57,36,20,30.16,30.02,4,1,11,0.00
2013-5-4,75,63,53,44,38,32,57,42,21,30.12,30.01,3,2,10,0.00
2013-5-5,78,63,49,43,35,24,72,39,16,30.07,29.94,4,1,9,0.00
2013-5-6,78,64,49,50,42,25,67,48,27,30.02,29.91,3,1,9,0.00
2013-5-7,75,64,55,58,52,48,85,67,39,29.99,29.90,2,0,6,0.00
2013-5-8,76,63,56,59,54,49,86,74,39,29.95,29.89,2,0,4,0.03
2013-5-9,83,66,54,57,48,35,93,60,21,29.95,29.88,3,0,6,0.03
2013-5-10,75,64,59,62,56,42,92,78,51,29.90,29.71,3,0,10,0.47
2013-5-11,60,50,45,58,46,43,93,88,73,29.87,29.71,5,0,8,0.13
2013-5-12,50,44,36,43,32,28,90,67,45,30.07,29.85,5,2,12,0.00
2013-5-13,55,43,35,32,27,20,78,56,26,30.16,30.06,4,1,10,0.00
2013-5-14,70,51,33,43,35,29,88,58,30,30.15,29.78,3,0,9,0.00
2013-5-15,87,69,54,61,51,40,83,56,30,29.81,29.65,6,1,16,0.00
2013-5-16,85,69,55,53,46,39,80,48,21,29.91,29.71,2,0,5,0.00
2013-5-17,84,65,48,58,48,42,86,57,28,30.07,29.91,2,0,5,0.00
2013-5-18,88,69,51,55,49,42,84,53,24,30.10,29.95,2,0,6,0.00
2013-5-19,86,72,60,65,60,52,90,69,44,30.01,29.87,2,0,8,0.00
2013-5-20,86,73,62,71,64,59,92,75,56,29.93,29.81,2,0,5,0.00
2013-5-21,88,76,68,67,65,62,90,70,46,29.84,29.71,2,0,6,0.00
2013-5-22,87,76,67,64,61,58,85,62,39,29.76,29.63,3,1,8,0.14
2013-5-23,72,61,43,64,56,40,92,85,65,29.99,29.67,4,1,8,0.13
2013-5-24,45,42,35,40,35,32,89,75,61,30.31,29.99,4,1,10,0.00
2013-5-25,63,47,31,40,33,28,94,64,30,30.36,30.25,3,1,8,0.00
2013-5-26,68,51,33,40,34,28,93,58,23,30.31,30.21,2,0,7,0.00
2013-5-27,58,50,38,51,43,35,91,78,52,30.25,30.03,1,0,3,0.12
2013-5-28,81,66,53,71,59,50,94,79,57,30.04,29.85,2,0,10,0.80
2013-5-29,88,77,69,65,60,58,73,58,38,29.98,29.87,3,0,7,0.00
2013-5-30,91,76,64,69,61,55,88,63,33,30.08,29.97,1,0,3,0.00
2013-5-31,89,73,63,73,64,59,93,75,43,30.00,29.87,5,0,13,0.00
2013-6-1,83,73,64,69,66,62,94,79,58,29.91,29.68,2,0,6,0.02
2013-6-2,77,69,63,68,61,55,94,76,52,29.85,29.68,3,1,8,0.51
2013-6-3,68,58,45,56,45,34,85,63,34,30.07,29.84,3,0,6,0.00
2013-6-4,74,57,41,50,43,39,94,65,32,30.15,30.06,2,0,7,0.00
2013-6-5,82,63,45,56,48,42,92,62,30,30.13,29.88,1,0,6,0.00
2013-6-6,64,59,55,62,56,47,95,90,62,29.88,29.76,1,0,8,1.47
2013-6-7,60,56,54,57,54,53,95,92,85,29.86,29.80,1,0,2,0.01
2013-6-8,72,62,56,58,54,51,93,78,51,30.06,29.86,1,0,3,0.00
2013-6-9,81,67,55,63,57,52,93,74,45,30.11,29.91,2,0,5,0.00
2013-6-10,71,68,64,70,64,61,94,89,80,29.91,29.69,1,0,3,0.45
2013-6-11,80,69,63,67,63,61,94,82,57,29.84,29.72,0,0,1,0.06
2013-6-12,81,72,64,70,66,61,92,81,61,29.85,29.59,0,0,1,0.01
2013-6-13,72,65,59,68,60,52,95,83,56,29.81,29.42,1,0,1,0.43
2013-6-14,74,62,54,59,55,50,93,77,57,30.04,29.81,1,0,1,0.00
2013-6-15,83,64,49,61,53,47,95,72,33,30.10,29.93,1,0,1,0.01
2013-6-16,82,69,63,68,63,59,93,83,58,29.93,29.80,1,0,3,0.52
2013-6-17,84,67,61,67,63,59,95,87,44,29.91,29.85,2,0,5,0.24
2013-6-18,79,66,57,65,58,50,94,78,55,29.96,29.83,1,0,2,0.00
2013-6-19,79,63,50,55,50,46,93,65,34,30.12,29.96,1,0,3,0.00
2013-6-20,84,65,48,58,52,46,94,68,34,30.19,30.12,1,0,4,0.00
2013-6-21,89,70,54,64,57,51,93,67,34,30.20,30.07,1,0,3,0.00
2013-6-22,91,76,61,72,64,58,91,69,46,30.09,29.97,1,0,8,0.00
2013-6-23,92,79,67,71,66,62,91,67,38,30.05,29.95,2,0,3,0.00
2013-6-24,91,77,64,69,64,60,90,66,37,30.05,29.91,2,0,6,0.00
2013-6-25,91,76,66,74,68,63,93,78,49,29.94,29.78,3,1,8,0.99
2013-6-26,83,73,66,73,68,64,94,85,63,29.87,29.72,2,0,6,0.71
2013-6-27,77,71,67,72,67,65,94,90,70,29.73,29.58,0,0,1,0.34
2013-6-28,81,68,62,68,63,58,94,85,57,29.58,29.44,0,0,1,0.05
2013-6-29,80,67,61,67,62,59,94,85,57,29.63,29.48,0,0,0,0.12
2013-6-30,79,68,61,67,63,60,95,84,66,29.83,29.63,0,0,0,0.01
2013-7-1,72,67,64,69,64,60,94,89,79,29.93,29.79,0,0,1,0.46
2013-7-2,84,70,62,70,65,61,95,84,57,29.99,29.90,0,0,0,0.00
2013-7-3,86,73,64,71,66,62,95,81,55,30.07,29.98,0,0,1,0.02
2013-7-4,78,72,69,71,68,65,94,86,70,30.11,30.04,0,0,0,0.08
2013-7-5,79,72,68,70,68,66,94,88,70,30.09,30.02,0,0,1,0.27
2013-7-6,86,74,68,73,68,66,94,83,57,30.09,29.93,0,0,1,0.50
2013-7-7,81,72,66,70,66,62,94,82,62,30.03,29.92,1,0,6,0.00
2013-7-8,87,72,63,72,65,60,94,80,52,30.04,29.96,1,0,3,0.83
2013-7-9,88,75,69,76,71,67,95,87,61,30.00,29.85,0,0,1,0.61
2013-7-10,86,73,67,78,70,66,95,92,70,29.89,29.70,1,0,3,2.54
2013-7-11,79,68,60,66,60,55,95,78,46,29.97,29.84,2,0,3,0.00
2013-7-12,81,68,56,66,59,54,95,77,42,30.06,29.97,0,0,0,0.00
2013-7-13,86,73,60,68,63,58,94,75,50,30.14,30.04,0,0,0,0.00
2013-7-14,90,76,65,75,68,63,95,79,49,30.20,30.13,0,0,1,0.00
2013-7-15,92,79,70,76,71,67,94,79,48,30.25,30.16,1,0,1,0.00
2013-7-16,89,78,71,79,73,69,94,85,60,30.25,30.16,1,0,3,0.13
2013-7-17,93,80,72,77,72,70,94,78,49,30.22,30.08,0,0,1,0.00
2013-7-18,93,82,72,77,73,70,94,76,51,30.10,29.92,0,0,1,0.00
2013-7-19,93,82,74,75,72,69,89,73,49,29.93,29.75,1,0,2,0.00
2013-7-20,79,73,68,72,69,66,94,86,72,29.86,29.72,2,0,3,0.83
2013-7-21,82,74,68,71,67,64,95,81,60,29.90,29.83,0,0,1,0.00
2013-7-22,76,68,63,71,65,61,94,90,82,29.90,29.71,0,0,0,0.05
2013-7-23,83,70,62,72,66,61,95,86,66,29.73,29.59,0,0,0,0.22
2013-7-24,73,64,54,61,55,51,89,72,49,29.99,29.72,0,0,0,0.00
2013-7-25,80,63,50,56,52,48,95,71,35,30.06,29.98,0,0,0,0.00
2013-7-26,83,66,52,62,55,50,95,71,39,30.06,29.90,0,0,0,0.00
2013-7-27,68,65,62,65,62,58,93,89,81,29.91,29.75,0,0,1,0.19
2013-7-28,72,63,54,60,54,48,92,74,49,29.97,29.80,0,0,0,0.01
2013-7-29,72,62,53,59,54,50,94,77,48,30.14,29.97,0,0,0,0.00
2013-7-30,80,65,53,62,57,51,95,77,43,30.20,30.09,0,0,0,0.00
2013-7-31,77,65,59,66,61,57,94,86,62,30.10,29.87,0,0,0,0.01
2013-8-1,83,70,61,66,62,57,94,78,44,29.87,29.78,0,0,1,0.07
2013-8-2,73,66,58,63,58,55,93,79,55,29.94,29.84,0,0,0,0.01
2013-8-3,81,70,60,66,60,51,93,74,39,29.95,29.85,0,0,1,0.09
2013-8-4,74,63,57,58,56,54,94,78,49,30.07,29.94,0,0,1,0.07
2013-8-5,73,63,55,63,56,51,93,79,47,30.09,29.95,0,0,0,0.00
2013-8-6,83,68,57,65,58,55,94,74,41,29.98,29.88,0,0,0,0.00
2013-8-7,78,68,62,70,64,58,94,87,73,29.91,29.83,0,0,1,0.69
2013-8-8,84,75,70,74,70,66,94,87,65,29.89,29.83,1,0,1,0.00
2013-8-9,81,70,60,67,62,54,93,77,46,29.97,29.83,0,0,0,0.01
2013-8-10,81,68,58,66,59,56,94,76,49,30.05,29.96,0,0,0,0.00
2013-8-11,82,73,62,66,60,56,93,67,46,30.08,29.98,0,0,0,0.00
2013-8-12,81,70,59,68,63,57,94,81,55,30.01,29.77,0,0,1,0.01
2013-8-13,74,66,53,67,59,48,93,78,58,29.94,29.73,0,0,1,0.00
2013-8-14,71,58,51,56,51,48,89,78,47,30.13,29.94,0,0,1,0.00
2013-8-15,74,59,48,57,51,46,95,76,42,30.17,30.08,0,0,1,0.00
2013-8-16,79,63,52,60,55,50,94,78,42,30.15,30.09,0,0,1,0.00
2013-8-17,81,65,53,62,56,51,94,74,40,30.21,30.13,0,0,0,0.00
2013-8-18,76,65,54,65,59,52,94,82,63,30.18,30.07,0,0,1,0.00
2013-8-19,84,69,60,64,61,57,94,78,42,30.09,30.00,0,0,1,0.00
2013-8-20,87,70,58,65,60,56,94,74,36,30.13,30.04,0,0,0,0.00
2013-8-21,89,72,59,67,62,57,95,74,38,30.14,29.98,0,0,1,0.00
2013-8-22,85,73,64,73,67,62,93,82,58,30.01,29.90,1,0,5,0.23
2013-8-23,85,72,58,66,60,51,94,70,34,30.11,29.93,0,0,0,0.00
2013-8-24,67,63,60,57,56,56,86,80,68,30.25,30.23,0,0,0,0.00
2013-8-25,87,68,53,64,57,51,95,72,37,30.30,30.16,0,0,0,0.00
2013-8-26,86,74,61,67,62,57,89,68,43,30.16,29.93,0,0,0,0.00
2013-8-27,79,74,71,73,69,66,93,85,75,29.98,29.83,1,0,3,0.70
2013-8-28,78,74,69,72,70,67,93,89,80,29.90,29.75,1,0,4,0.05
2013-8-29,88,75,68,71,68,64,94,81,44,29.99,29.89,0,0,1,0.00
2013-8-30,89,74,62,70,66,60,95,76,45,29.95,29.73,0,0,1,0.00
2013-8-31,87,75,69,72,68,66,93,80,52,29.77,29.64,1,0,1,0.00
2013-9-1,84,74,68,73,68,66,94,83,58,29.75,29.67,1,0,1,0.03
2013-9-2,80,70,63,72,67,60,94,88,70,29.79,29.67,1,0,1,0.13
2013-9-3,65,61,55,60,56,52,92,84,73,30.00,29.79,2,0,5,0.00
2013-9-4,81,64,51,61,55,49,95,76,44,30.08,29.99,0,0,0,0.00
2013-9-5,74,64,51,59,54,44,89,73,35,30.19,29.99,0,0,0,0.00
2013-9-6,78,59,44,54,47,40,95,71,26,30.26,30.08,0,0,0,0.00
2013-9-7,82,64,49,67,56,47,94,77,46,30.08,29.86,0,0,0,0.00
2013-9-8,77,67,56,66,61,52,93,84,58,30.02,29.84,0,0,0,0.00
2013-9-9,79,65,50,72,60,48,94,87,70,30.04,29.92,0,0,0,0.00
2013-9-10,97,81,70,75,70,67,91,72,40,30.00,29.92,0,0,0,0.00
2013-9-11,93,80,72,73,70,66,91,73,43,30.03,29.88,0,0,1,0.00
2013-9-12,74,68,59,69,65,57,93,91,84,29.91,29.76,0,0,1,0.82
2013-9-13,59,56,51,58,53,47,95,88,75,30.04,29.81,0,0,0,0.08
2013-9-14,69,55,47,50,46,43,90,75,44,30.14,30.03,0,0,0,0.00
2013-9-15,67,56,45,56,49,43,95,81,53,30.15,30.03,0,0,0,0.02
2013-9-16,68,59,50,58,53,47,95,83,59,30.29,30.06,0,0,0,0.05
2013-9-17,72,54,41,52,46,39,95,76,38,30.39,30.21,0,0,0,0.00
2013-9-18,73,58,44,61,51,42,95,81,54,30.22,30.04,0,0,0,0.00
2013-9-19,77,67,59,66,62,56,92,83,65,30.07,29.95,0,0,0,0.00
2013-9-20,84,72,64,71,66,62,93,83,62,29.95,29.72,0,0,1,0.20
2013-9-21,69,66,56,100,64,54,94,93,85,29.74,29.60,1,0,5,1.46
2013-9-22,58,55,52,49,47,45,90,76,63,30.01,29.93,1,0,1,0.00
2013-9-23,59,52,44,86,46,42,91,79,60,30.14,30.01,0,0,0,0.00
2013-9-24,70,51,38,54,45,36,95,81,45,30.14,29.95,0,0,0,0.00
2013-9-25,74,55,41,58,46,0,95,77,40,29.96,29.84,0,0,0,0.00
2013-9-26,76,55,45,55,42,0,95,68,39,30.10,29.90,0,0,0,0.00
2013-9-27,75,58,47,54,49,43,93,76,44,30.18,30.08,0,0,0,0.00
2013-9-28,78,60,47,59,52,45,95,78,43,30.21,30.05,0,0,0,0.00
2013-9-29,74,58,52,61,53,49,94,85,58,30.05,29.94,0,0,0,0.00
2013-9-30,65,62,56,60,58,54,93,88,83,29.98,29.92,0,0,1,0.01
2013-10-1,79,63,53,64,56,52,95,81,50,30.03,29.92,0,0,0,0.00
2013-10-2,81,66,57,68,61,55,94,83,58,30.04,29.96,0,0,0,0.00
2013-10-3,81,66,59,71,62,57,95,89,65,30.02,29.94,0,0,1,0.35
2013-10-4,79,71,63,68,66,62,95,85,63,30.02,29.96,2,0,1,0.01
2013-10-5,75,70,64,70,67,63,95,90,75,30.00,29.88,1,0,5,0.10
2013-10-6,80,70,56,68,65,52,95,83,58,29.88,29.62,3,0,8,0.33
2013-10-7,58,54,50,54,46,43,92,76,58,30.10,29.68,3,0,6,0.67
2013-10-8,68,54,43,51,45,41,95,76,40,30.27,30.10,0,0,1,0.00
2013-10-9,70,52,40,50,44,38,95,76,39,30.31,30.20,0,0,1,0.00
2013-10-10,67,49,40,52,44,38,95,85,53,30.22,30.10,0,0,0,0.00
2013-10-11,76,63,42,56,51,41,95,69,38,30.12,30.00,1,0,1,0.00
2013-10-12,75,60,48,64,55,46,95,85,60,30.10,30.01,0,0,1,0.00
2013-10-13,68,62,57,61,58,52,92,86,75,30.24,30.06,0,0,3,0.00
2013-10-14,69,56,45,53,48,42,93,77,49,30.32,30.19,2,0,2,0.00
2013-10-15,64,54,41,59,51,39,94,89,79,30.22,29.90,1,0,1,0.01
2013-10-16,67,60,48,62,58,46,95,91,80,29.90,29.74,0,0,1,0.87
2013-10-17,58,48,41,50,45,39,95,89,60,29.89,29.75,0,0,1,0.18
2013-10-18,62,51,41,47,43,38,94,75,50,29.96,29.84,0,0,1,0.01
2013-10-19,50,45,41,45,42,38,93,89,79,29.89,29.72,1,0,1,0.22
2013-10-20,60,48,38,43,38,35,91,73,44,29.95,29.89,1,0,1,0.22
2013-10-21,65,53,42,48,41,38,91,67,40,29.96,29.80,0,0,1,0.10
2013-10-22,51,43,34,48,33,27,92,70,42,29.95,29.82,1,0,1,0.06
2013-10-23,44,38,34,41,33,30,93,82,63,29.91,29.76,1,0,1,0.10
2013-10-24,45,37,31,32,30,28,90,79,57,30.13,29.90,1,0,2,0.00
2013-10-25,49,39,33,35,31,28,91,76,47,30.32,30.14,1,0,1,0.00
2013-10-26,46,40,35,38,29,25,90,64,49,30.20,29.84,1,0,1,0.01
2013-10-27,50,41,33,38,34,31,95,78,50,30.07,29.96,3,0,5,0.05
2013-10-28,57,42,30,42,35,28,94,79,47,30.31,30.06,0,0,1,0.05
2013-10-29,59,43,30,42,35,29,95,78,43,30.39,30.23,1,0,3,0.00
2013-10-30,67,50,37,50,42,34,93,77,50,30.22,30.05,2,0,3,0.00
2013-10-31,65,60,58,58,56,53,92,88,74,29.99,29.27,4,1,8,0.63
2013-11-1,60,53,49,58,46,41,91,78,63,29.66,29.19,5,2,10,0.24
2013-11-2,50,46,42,44,42,40,92,86,75,29.99,29.64,3,1,6,0.05
2013-11-3,47,40,30,40,33,25,94,79,52,30.45,29.99,1,0,5,0.00
2013-11-4,46,36,27,30,25,22,87,65,39,30.52,30.36,3,0,7,0.00
2013-11-5,61,49,39,42,36,28,76,63,48,30.40,30.25,1,0,5,0.00
2013-11-6,66,54,42,56,44,34,92,69,52,30.24,29.85,5,1,10,0.32
2013-11-7,52,42,38,49,35,26,94,78,55,30.11,29.88,5,2,13,0.18
2013-11-8,41,37,33,32,29,26,87,73,56,30.27,30.08,4,2,8,0.00
2013-11-9,58,55,52,40,36,31,62,49,40,29.94,29.87,4,2,13,0.00
2013-11-10,52,44,36,39,32,27,74,63,52,30.27,29.90,7,2,14,0.00
2013-11-11,47,42,31,38,32,29,93,71,50,30.18,30.00,4,2,11,0.08
2013-11-12,33,30,28,29,25,21,93,83,66,30.49,30.18,5,1,6,0.04
2013-11-13,36,31,26,22,20,16,80,64,44,30.54,30.29,4,1,7,0.00
2013-11-14,50,38,28,23,20,18,71,50,29,30.28,30.09,4,1,7,0.02
2013-11-15,53,44,37,31,24,19,62,45,28,30.12,30.05,4,1,7,0.00
2013-11-16,60,49,36,50,41,30,86,74,61,30.16,29.89,3,1,7,0.00
2013-11-17,61,57,52,57,52,41,93,84,65,29.88,29.38,7,2,14,0.93
2013-11-18,52,43,36,41,33,25,77,67,59,30.08,29.53,7,4,22,0.00
2013-11-19,38,34,25,26,24,21,83,65,54,30.41,30.08,4,2,12,0.00
2013-11-20,46,33,21,25,19,15,92,60,28,30.46,30.30,3,1,7,0.00
2013-11-21,43,40,37,40,32,16,92,73,42,30.36,30.18,1,0,3,0.07
2013-11-22,50,44,35,48,41,29,95,91,78,30.29,30.08,6,1,10,0.11
2013-11-23,35,28,19,29,21,5,89,74,51,30.41,30.21,7,3,14,0.00
2013-11-24,24,20,18,12,8,4,72,59,51,30.57,30.41,7,3,19,0.00
2013-11-25,34,26,16,26,13,10,80,61,43,30.49,30.17,3,1,7,0.00
2013-11-26,34,32,30,30,28,26,93,86,79,30.17,29.82,2,0,3,0.00
2013-11-27,32,27,23,30,21,12,93,78,62,30.14,29.78,6,2,18,0.00
2013-11-28,28,24,16,20,16,10,79,72,57,30.41,30.15,4,1,5,0.00
2013-11-29,33,24,15,22,17,12,89,75,56,30.66,30.41,1,0,3,0.01
2013-11-30,39,31,24,26,22,18,82,70,57,30.60,30.17,3,1,6,0.03
2013-12-1,41,35,28,30,28,24,87,76,63,30.17,29.94,1,0,4,0.12
2013-12-2,39,35,31,34,31,28,90,84,74,29.95,29.85,1,0,2,0.02
2013-12-3,50,39,31,40,34,28,90,83,68,29.90,29.83,2,0,4,0.01
2013-12-4,58,49,38,48,43,35,91,79,67,29.93,29.74,2,0,6,0.00
2013-12-5,60,52,33,55,44,30,91,77,63,30.08,29.71,6,2,11,0.03
2013-12-6,33,30,26,31,27,23,91,87,72,30.32,30.06,4,1,7,0.01
2013-12-7,26,23,18,23,16,12,88,73,59,30.61,30.33,4,1,11,0.00
2013-12-8,28,24,17,25,17,12,86,76,60,30.60,30.02,3,1,8,0.00
2013-12-9,34,31,25,32,25,17,93,81,68,30.15,29.92,5,2,11,0.01
2013-12-10,26,23,20,17,11,6,72,61,43,30.27,30.02,5,2,11,0.00
2013-12-11,25,20,17,19,13,8,86,74,62,30.42,30.26,5,2,10,0.00
2013-12-12,19,14,7,10,3,-3,79,61,39,30.50,30.26,5,2,11,0.00
2013-12-13,30,24,18,17,11,2,74,59,49,30.27,30.19,3,1,7,0.00
2013-12-14,32,28,24,31,26,17,94,89,72,30.23,29.65,1,0,3,0.00
2013-12-15,33,23,14,31,19,8,94,84,74,30.06,29.65,5,2,11,0.00
2013-12-16,24,18,11,18,10,6,86,73,58,30.20,30.02,2,0,3,0.00
2013-12-17,28,25,22,26,21,18,92,84,74,30.05,29.92,4,1,6,0.00
2013-12-18,29,26,23,22,19,16,84,75,63,30.16,30.00,3,1,7,0.00
2013-12-19,44,37,29,33,26,17,77,64,53,30.03,29.93,3,1,5,0.46
2013-12-20,54,46,41,52,41,30,94,82,60,29.93,29.76,3,1,5,0.49
2013-12-21,56,48,41,55,47,40,96,94,91,29.77,29.47,4,1,5,1.09
2013-12-22,60,52,42,59,46,38,97,82,57,29.93,29.38,6,0,7,0.52
2013-12-23,42,34,28,38,26,18,91,75,63,30.30,29.94,5,1,10,0.01
2013-12-24,28,19,15,21,11,7,85,72,64,30.56,30.27,5,2,13,0.00
2013-12-25,28,20,12,19,12,8,85,70,57,30.53,30.17,3,1,7,0.00
2013-12-26,31,28,22,26,20,15,85,73,58,30.33,30.09,5,2,10,0.00
2013-12-27,41,34,24,29,25,18,78,68,61,30.34,30.18,4,1,8,0.03
2013-12-28,51,43,36,34,30,27,71,61,47,30.17,29.97,3,1,8,0.00
2013-12-29,43,39,29,39,31,25,92,74,55,29.97,29.69,3,0,6,0.22
2013-12-30,29,22,20,26,16,9,90,76,57,30.25,29.92,5,2,8,0.00
2013-12-31,23,19,17,19,13,8,86,75,62,30.32,30.07,6,2,12,0.00
2014-1-1,25,21,19,19,17,15,88,83,77,30.34,30.18,1,0,1,0.00
2014-1-2,21,17,12,17,13,8,88,84,80,30.10,29.83,1,0,1,0.00